Location: Delia
(51.6321°N, 112.3740°W)
Time: 20:07:33
(UTC+00:00)

Envisat - Pass Details

Date: 02 December 2021
Orbit: 764 x 766 km, 98.2° (Epoch: 26 January)

Event Time Altitude Azimuth Distance (km) Brightness Sun altitude
Rises 13:24:40 0° 10° (N) 3,248 6.2 -16.3°
Reaches altitude 10° 13:27:03 10° 5° (N) 2,317 5.4 -15.9°
Maximum altitude 13:31:54 46° 293° (WNW) 1,030 3.2 -15.2°
Drops below altitude 10° 13:36:43 10° 222° (SW) 2,301 5.2 -14.5°
Sets 13:39:05 0° 216° (SW) 3,223 6.0 -14.1°
